Zurück zum Katalog

BEE-1000

AktivAmateurfunkSSO
NORAD 66650·PAYLOAD·🇰🇷 South Korea

Gestartet Nov 26, 2025 von Naro Space Center

Loading…

Nächste Überflüge (nächste 24 Stunden)

TLE

AktuellSource: Space-Track

Epoche: Sep 14, 2026, 13:14 UTC

1 66650U 25274A   26257.55192821  .00002746  00000-0  26724-3 0  9991
2 66650  97.7478 185.2795 0013226  61.4090 298.8459 14.93293682 43546

Verfolge BEE-1000 in Echtzeit mit AllMySat

Download on the App Store